User: anonymous   Login
Location: Unspecified
(0.0000°N, 0.0000°E)
Time: 21:33:21
(UTC+02:00)
Language:

Cosmos 1092 Rocket - Orbit

View from above orbital plane
View from above orbital plane
View from above satellite
View from above satellite

Ground track
Ground track

The orbit data is extracted from the following two-line orbital elements,

1 11327U 79030B   17115.75663618 -.00000011 +00000-0 -25962-4 0  9992
2 11327 082.9488 334.7930 0027023 328.8954 099.3840 13.76970984911713
Epoch (UTC): 25 April 2017 18:09:33
Eccentricity: 0.0027023
inclination: 82.9488°
perigee height: 955 km
apogee height: 994 km
right ascension of ascending node: 334.7930°
argument of perigee: 328.8954°
revolutions per day: 13.76970984
mean anomaly at epoch: 99.3840°
orbit number at epoch: 91171

The dashed part of the orbit path shows where the satellite is in the earth's shadow,  

DLR